TimeCDT,TemperatureF,Dew PointF,Humidity,Sea Level PressureIn,VisibilityMPH,Wind Direction,Wind SpeedMPH,Gust SpeedMPH,PrecipitationIn,Events,Conditions,WindDirDegrees,DateUTC
12:52 AM,71.1,57.0,61,30.03,10.0,SSW,11.5,-,N/A,,Clear,200,2012-09-26 05:52:00
1:52 AM,71.1,51.1,49,30.03,10.0,SSW,11.5,-,N/A,,Clear,210,2012-09-26 06:52:00
3:52 AM,68.0,51.1,55,30.03,10.0,South,3.5,-,N/A,,Clear,180,2012-09-26 08:52:00
4:52 AM,66.9,52.0,59,30.05,10.0,SW,6.9,-,N/A,,Clear,220,2012-09-26 09:52:00
5:52 AM,66.0,53.1,63,30.06,10.0,South,8.1,-,N/A,,Clear,190,2012-09-26 10:52:00
6:52 AM,64.0,53.1,67,30.08,10.0,South,4.6,-,N/A,,Clear,190,2012-09-26 11:52:00
7:52 AM,66.0,54.0,65,30.10,10.0,South,6.9,-,N/A,,Clear,190,2012-09-26 12:52:00
8:52 AM,70.0,55.0,59,30.12,10.0,SSW,11.5,-,N/A,,Clear,200,2012-09-26 13:52:00
9:52 AM,73.9,55.9,53,30.11,10.0,SSW,12.7,-,N/A,,Clear,200,2012-09-26 14:52:00
10:52 AM,77.0,61.0,58,30.11,10.0,South,11.5,-,N/A,,Clear,190,2012-09-26 15:52:00
11:52 AM,80.1,64.0,58,30.09,10.0,SSW,12.7,-,N/A,,Clear,210,2012-09-26 16:52:00
1:52 PM,84.0,66.9,56,30.05,10.0,SW,11.5,-,N/A,,Scattered Clouds,220,2012-09-26 18:52:00
2:52 PM,84.0,66.9,56,30.04,9.0,SSW,13.8,19.6,N/A,,Mostly Cloudy,210,2012-09-26 19:52:00
3:52 PM,82.9,64.9,54,30.04,10.0,SW,12.7,20.7,N/A,,Partly Cloudy,220,2012-09-26 20:52:00
4:52 PM,82.0,66.0,58,30.04,10.0,SSW,15.0,-,N/A,,Clear,210,2012-09-26 21:52:00
5:52 PM,80.1,66.0,62,30.05,10.0,SSW,6.9,-,N/A,,Clear,200,2012-09-26 22:52:00
7:52 PM,73.9,64.9,73,30.09,10.0,SSW,6.9,-,N/A,,Clear,200,2012-09-27 00:52:00
8:47 PM,75.2,64.4,69,30.17,10.0,WNW,27.6,32.2,N/A,Thunderstorm,Mostly Cloudy,300,2012-09-27 01:47:00
8:52 PM,71.1,62.1,73,30.16,7.0,NW,21.9,32.2,0.00,Rain-Thunderstorm,Light Thunderstorms and Rain,310,2012-09-27 01:52:00
9:04 PM,66.2,62.6,88,30.17,5.0,WNW,10.4,-,0.07,Rain-Thunderstorm,Light Thunderstorms and Rain,300,2012-09-27 02:04:00
9:33 PM,66.2,62.6,88,30.17,10.0,WNW,4.6,-,0.07,,Mostly Cloudy,290,2012-09-27 02:33:00
9:52 PM,66.0,63.0,90,30.16,10.0,West,4.6,-,0.07,,Mostly Cloudy,260,2012-09-27 02:52:00
10:52 PM,66.0,64.0,93,30.10,10.0,SE,6.9,-,0.04,Rain,Light Rain,140,2012-09-27 03:52:00
11:52 PM,66.0,64.0,93,30.08,10.0,Calm,Calm,-,0.00,,Mostly Cloudy,0,2012-09-27 04:52:00